Year,Month,Day,Hour,Minute,Value (Times are PST for barometer in hPa)
2011,11,13,00,00,1004.29
2011,11,13,00,01,1004.34
2011,11,13,00,02,1004.30
2011,11,13,00,03,1004.30
2011,11,13,00,04,1004.37
2011,11,13,00,05,1004.34
2011,11,13,00,06,1004.40
2011,11,13,00,07,1004.34
2011,11,13,00,08,1004.44
2011,11,13,00,09,1004.40
2011,11,13,00,10,1004.53
2011,11,13,00,11,1004.50
2011,11,13,00,12,1004.57
2011,11,13,00,13,1004.61
2011,11,13,00,14,1004.61
2011,11,13,00,15,1004.64
2011,11,13,00,16,1004.64
2011,11,13,00,17,1004.74
2011,11,13,00,18,1004.71
2011,11,13,00,19,1004.71
2011,11,13,00,20,1004.71
2011,11,13,00,21,1004.67
2011,11,13,00,22,1004.71
2011,11,13,00,23,1004.71
2011,11,13,00,24,1004.64
2011,11,13,00,25,1004.57
2011,11,13,00,26,1004.70
2011,11,13,00,27,1004.81
2011,11,13,00,28,1004.71
2011,11,13,00,29,1004.81
2011,11,13,00,30,1004.74
2011,11,13,00,31,1004.78
2011,11,13,00,32,1004.78
2011,11,13,00,33,1004.84
2011,11,13,00,34,1004.81
2011,11,13,00,35,1004.81
2011,11,13,00,36,1004.81
2011,11,13,00,37,1004.88
2011,11,13,00,38,1004.88
2011,11,13,00,39,1004.75
2011,11,13,00,40,1004.87
2011,11,13,00,41,1004.95
2011,11,13,00,42,1005.04
2011,11,13,00,43,1005.11
2011,11,13,00,44,1005.11
2011,11,13,00,45,1005.18
2011,11,13,00,46,1005.15
2011,11,13,00,47,1005.18
2011,11,13,00,48,1005.25
2011,11,13,00,49,1005.25
2011,11,13,00,50,1005.25
2011,11,13,00,51,1005.15
2011,11,13,00,52,1005.27
2011,11,13,00,53,1005.35
2011,11,13,00,54,1005.39
2011,11,13,00,55,1005.35
2011,11,13,00,56,1005.35
2011,11,13,00,57,1005.39
2011,11,13,00,58,1005.42
2011,11,13,00,59,1005.45
2011,11,13,01,00,1005.49
2011,11,13,01,01,1005.49
2011,11,13,01,02,1005.42
2011,11,13,01,03,1005.35
2011,11,13,01,04,1005.48
2011,11,13,01,05,1005.45
2011,11,13,01,06,1005.42
2011,11,13,01,07,1005.45
2011,11,13,01,08,1005.49
2011,11,13,01,09,1005.29
2011,11,13,01,10,1005.44
2011,11,13,01,11,1005.49
2011,11,13,01,12,1005.45
2011,11,13,01,13,1005.45
2011,11,13,01,14,1005.68
2011,11,13,01,15,1005.59
2011,11,13,01,16,1005.59
2011,11,13,01,17,1005.69
2011,11,13,01,18,1005.72
2011,11,13,01,19,1005.72
2011,11,13,01,20,1005.72
2011,11,13,01,21,1005.72
2011,11,13,01,22,1005.72
2011,11,13,01,23,1005.85
2011,11,13,01,24,1005.73
2011,11,13,01,25,1005.72
2011,11,13,01,26,1005.69
2011,11,13,01,27,1005.72
2011,11,13,01,28,1005.72
2011,11,13,01,29,1005.85
2011,11,13,01,30,1005.83
2011,11,13,01,31,1005.76
2011,11,13,01,32,1005.86
2011,11,13,01,33,1005.89
2011,11,13,01,34,1005.93
2011,11,13,01,35,1005.86
2011,11,13,01,36,1005.86
2011,11,13,01,37,1005.86
2011,11,13,01,38,1005.89
2011,11,13,01,39,1005.89
2011,11,13,01,40,1005.83
2011,11,13,01,41,1005.89
2011,11,13,01,42,1005.86
2011,11,13,01,43,1005.79
2011,11,13,01,44,1005.86
2011,11,13,01,45,1005.79
2011,11,13,01,46,1005.86
2011,11,13,01,47,1005.83
2011,11,13,01,48,1005.83
2011,11,13,01,49,1005.83
2011,11,13,01,50,1005.79
2011,11,13,01,51,1005.86
2011,11,13,01,52,1005.93
2011,11,13,01,53,1005.99
2011,11,13,01,54,1005.99
2011,11,13,01,55,1005.93
2011,11,13,01,56,1005.99
2011,11,13,01,57,1005.93
2011,11,13,01,58,1005.99
2011,11,13,01,59,1006.03
2011,11,13,02,00,1005.99
2011,11,13,02,01,1006.06
2011,11,13,02,02,1006.06
2011,11,13,02,03,1006.06
2011,11,13,02,04,1006.06
2011,11,13,02,05,1006.06
2011,11,13,02,06,1006.10
2011,11,13,02,07,1006.06
2011,11,13,02,08,1006.10
2011,11,13,02,09,1006.10
2011,11,13,02,10,1006.06
2011,11,13,02,11,1006.06
2011,11,13,02,12,1006.06
2011,11,13,02,13,1006.13
2011,11,13,02,14,1006.06
2011,11,13,02,15,1006.15
2011,11,13,02,16,1006.13
2011,11,13,02,17,1006.06
2011,11,13,02,18,1006.10
2011,11,13,02,19,1006.10
2011,11,13,02,20,1006.13
2011,11,13,02,21,1006.13
2011,11,13,02,22,1006.16
2011,11,13,02,23,1006.23
2011,11,13,02,24,1006.30
2011,11,13,02,25,1006.23
2011,11,13,02,26,1006.23
2011,11,13,02,27,1006.27
2011,11,13,02,28,1006.17
2011,11,13,02,29,1006.13
2011,11,13,02,30,1006.13
2011,11,13,02,31,1006.03
2011,11,13,02,32,1006.15
2011,11,13,02,33,1006.20
2011,11,13,02,34,1006.23
2011,11,13,02,35,1006.16
2011,11,13,02,36,1006.16
2011,11,13,02,37,1006.20
2011,11,13,02,38,1006.16
2011,11,13,02,39,1006.23
2011,11,13,02,40,1006.27
2011,11,13,02,41,1006.33
2011,11,13,02,42,1006.33
2011,11,13,02,43,1006.37
2011,11,13,02,44,1006.40
2011,11,13,02,45,1006.40
2011,11,13,02,46,1006.33
2011,11,13,02,47,1006.33
2011,11,13,02,48,1006.37
2011,11,13,02,49,1006.28
2011,11,13,02,50,1006.33
2011,11,13,02,51,1006.43
2011,11,13,02,52,1006.34
2011,11,13,02,53,1006.46
2011,11,13,02,54,1006.40
2011,11,13,02,55,1006.53
2011,11,13,02,56,1006.33
2011,11,13,02,57,1006.40
2011,11,13,02,58,1006.40
2011,11,13,02,59,1006.37
2011,11,13,03,00,1006.44
2011,11,13,03,01,1006.44
2011,11,13,03,02,1006.44
2011,11,13,03,06,1006.47
2011,11,13,03,07,1006.40
2011,11,13,03,08,1006.44
2011,11,13,03,09,1006.54
2011,11,13,03,10,1006.54
2011,11,13,03,11,1006.50
2011,11,13,03,12,1006.57
2011,11,13,03,13,1006.77
2011,11,13,03,14,1006.54
2011,11,13,03,15,1006.60
2011,11,13,03,16,1006.57
2011,11,13,03,17,1006.64
2011,11,13,03,18,1006.64
2011,11,13,03,19,1006.67
2011,11,13,03,20,1006.57
2011,11,13,03,21,1006.51
2011,11,13,03,22,1006.71
2011,11,13,03,23,1006.67
2011,11,13,03,24,1006.74
2011,11,13,03,25,1006.74
2011,11,13,03,26,1006.81
2011,11,13,03,27,1006.81
2011,11,13,03,28,1006.77
2011,11,13,03,29,1006.84
2011,11,13,03,30,1006.80
2011,11,13,03,31,1006.71
2011,11,13,03,32,1006.81
2011,11,13,03,33,1006.84
2011,11,13,03,34,1006.84
2011,11,13,03,35,1006.88
2011,11,13,03,36,1006.84
2011,11,13,03,37,1006.84
2011,11,13,03,38,1006.94
2011,11,13,03,39,1006.81
2011,11,13,03,40,1006.84
2011,11,13,03,41,1006.84
2011,11,13,03,42,1006.78
2011,11,13,03,43,1006.91
2011,11,13,03,44,1006.81
2011,11,13,03,45,1006.84
2011,11,13,03,46,1006.91
2011,11,13,03,47,1006.98
2011,11,13,03,48,1006.94
2011,11,13,03,49,1006.91
2011,11,13,03,50,1006.91
2011,11,13,03,51,1006.88
2011,11,13,03,52,1006.88
2011,11,13,03,53,1006.84
2011,11,13,03,54,1006.81
2011,11,13,03,55,1006.81
2011,11,13,03,56,1006.81
2011,11,13,03,57,1006.81
2011,11,13,03,58,1006.74
2011,11,13,03,59,1006.84
2011,11,13,04,00,1006.77
2011,11,13,04,01,1006.71
2011,11,13,04,02,1006.77
2011,11,13,04,03,1006.81
2011,11,13,04,04,1006.87
2011,11,13,04,05,1006.77
2011,11,13,04,06,1006.74
2011,11,13,04,07,1006.74
2011,11,13,04,08,1006.77
2011,11,13,04,09,1006.67
2011,11,13,04,10,1006.81
2011,11,13,04,11,1006.77
2011,11,13,04,12,1006.80
2011,11,13,04,13,1006.71
2011,11,13,04,14,1006.91
2011,11,13,04,15,1006.77
2011,11,13,04,16,1006.81
2011,11,13,04,17,1006.77
2011,11,13,04,18,1006.77
2011,11,13,04,19,1006.77
2011,11,13,04,20,1006.81
2011,11,13,04,21,1006.88
2011,11,13,04,22,1006.84
2011,11,13,04,23,1006.88
2011,11,13,04,24,1006.81
2011,11,13,04,25,1006.91
2011,11,13,04,26,1006.88
2011,11,13,04,27,1006.88
2011,11,13,04,28,1006.94
2011,11,13,04,29,1006.91
2011,11,13,04,30,1006.91
2011,11,13,04,31,1006.84
2011,11,13,04,32,1006.95
2011,11,13,04,33,1007.08
2011,11,13,04,34,1006.89
2011,11,13,04,35,1006.98
2011,11,13,04,36,1006.94
2011,11,13,04,37,1007.11
2011,11,13,04,38,1007.08
2011,11,13,04,39,1007.11
2011,11,13,04,40,1007.01
2011,11,13,04,41,1007.11
2011,11,13,04,42,1007.11
2011,11,13,04,43,1007.01
2011,11,13,04,44,1007.11
2011,11,13,04,45,1007.01
2011,11,13,04,46,1006.94
2011,11,13,04,47,1007.04
2011,11,13,04,48,1006.98
2011,11,13,04,49,1007.01
2011,11,13,04,50,1007.11
2011,11,13,04,51,1007.11
2011,11,13,04,52,1007.08
2011,11,13,04,53,1006.98
2011,11,13,04,54,1007.04
2011,11,13,04,55,1007.08
2011,11,13,04,56,1006.94
2011,11,13,04,57,1007.01
2011,11,13,04,58,1007.21
2011,11,13,04,59,1007.18
2011,11,13,05,00,1007.18
2011,11,13,05,01,1007.25
2011,11,13,05,02,1007.15
2011,11,13,05,03,1007.21
2011,11,13,05,04,1007.32
2011,11,13,05,05,1007.32
2011,11,13,05,06,1007.21
2011,11,13,05,07,1007.28
2011,11,13,05,08,1007.16
2011,11,13,05,09,1007.32
2011,11,13,05,10,1007.28
2011,11,13,05,11,1007.21
2011,11,13,05,12,1007.21
2011,11,13,05,13,1007.18
2011,11,13,05,14,1007.09
2011,11,13,05,15,1007.25
2011,11,13,05,16,1007.15
2011,11,13,05,17,1007.18
2011,11,13,05,18,1007.15
2011,11,13,05,19,1007.21
2011,11,13,05,20,1007.11
2011,11,13,05,21,1007.25
2011,11,13,05,22,1007.38
2011,11,13,05,23,1007.35
2011,11,13,05,24,1007.42
2011,11,13,05,25,1007.42
2011,11,13,05,26,1007.35
2011,11,13,05,27,1007.42
2011,11,13,05,28,1007.45
2011,11,13,05,29,1007.35
2011,11,13,05,30,1007.32
2011,11,13,05,31,1007.38
2011,11,13,05,32,1007.48
2011,11,13,05,33,1007.38
2011,11,13,05,34,1007.35
2011,11,13,05,35,1007.47
2011,11,13,05,36,1007.32
2011,11,13,05,37,1007.38
2011,11,13,05,38,1007.42
2011,11,13,05,39,1007.35
2011,11,13,05,40,1007.42
2011,11,13,05,41,1007.32
2011,11,13,05,42,1007.28
2011,11,13,05,43,1007.25
2011,11,13,05,44,1007.35
2011,11,13,05,45,1007.32
2011,11,13,05,46,1007.38
2011,11,13,05,47,1007.35
2011,11,13,05,48,1007.35
2011,11,13,05,49,1007.38
2011,11,13,05,50,1007.35
2011,11,13,05,51,1007.38
2011,11,13,05,52,1007.35
2011,11,13,05,53,1007.45
2011,11,13,05,54,1007.38
2011,11,13,05,55,1007.42
2011,11,13,05,56,1007.42
2011,11,13,05,57,1007.45
2011,11,13,05,58,1007.45
2011,11,13,05,59,1007.48
2011,11,13,06,00,1007.42
2011,11,13,06,01,1007.48
2011,11,13,06,02,1007.48
2011,11,13,06,03,1007.58
2011,11,13,06,04,1007.48
2011,11,13,06,05,1007.52
2011,11,13,06,06,1007.48
2011,11,13,06,07,1007.33
2011,11,13,06,08,1007.48
2011,11,13,06,09,1007.42
2011,11,13,06,10,1007.45
2011,11,13,06,11,1007.42
2011,11,13,06,12,1007.48
2011,11,13,06,13,1007.48
2011,11,13,06,14,1007.48
2011,11,13,06,15,1007.60
2011,11,13,06,16,1007.28
2011,11,13,06,17,1007.25
2011,11,13,06,18,1007.55
2011,11,13,06,19,1007.62
2011,11,13,06,20,1007.52
2011,11,13,06,21,1007.42
2011,11,13,06,22,1007.59
2011,11,13,06,23,1007.72
2011,11,13,06,24,1007.82
2011,11,13,06,25,1007.65
2011,11,13,06,26,1007.69
2011,11,13,06,27,1007.79
2011,11,13,06,28,1007.76
2011,11,13,06,29,1007.82
2011,11,13,06,30,1007.93
2011,11,13,06,31,1007.79
2011,11,13,06,32,1007.86
2011,11,13,06,33,1007.82
2011,11,13,06,34,1007.86
2011,11,13,06,35,1007.93
2011,11,13,06,36,1007.79
2011,11,13,06,37,1007.86
2011,11,13,06,38,1007.96
2011,11,13,06,39,1007.79
2011,11,13,06,40,1007.96
2011,11,13,06,41,1007.93
2011,11,13,06,42,1008.03
2011,11,13,06,43,1007.93
2011,11,13,06,44,1007.86
2011,11,13,06,45,1007.86
2011,11,13,06,46,1007.89
2011,11,13,06,47,1007.86
2011,11,13,06,48,1007.76
2011,11,13,06,49,1007.82
2011,11,13,06,50,1007.89
2011,11,13,06,51,1007.79
2011,11,13,06,52,1007.79
2011,11,13,06,53,1007.76
2011,11,13,06,54,1007.86
2011,11,13,06,55,1007.82
2011,11,13,06,56,1007.76
2011,11,13,06,57,1007.89
2011,11,13,06,58,1007.77
2011,11,13,06,59,1007.72
2011,11,13,07,00,1007.79
2011,11,13,07,01,1007.82
2011,11,13,07,02,1007.69
2011,11,13,07,03,1007.82
2011,11,13,07,04,1007.82
2011,11,13,07,05,1007.82
2011,11,13,07,06,1007.79
2011,11,13,07,07,1007.76
2011,11,13,07,08,1007.79
2011,11,13,07,09,1008.03
2011,11,13,07,10,1008.03
2011,11,13,07,11,1008.03
2011,11,13,07,12,1008.12
2011,11,13,07,13,1007.99
2011,11,13,07,14,1008.03
2011,11,13,07,15,1008.03
2011,11,13,07,16,1008.09
2011,11,13,07,17,1007.96
2011,11,13,07,18,1007.99
2011,11,13,07,19,1007.89
2011,11,13,07,20,1007.96
2011,11,13,07,21,1007.89
2011,11,13,07,22,1007.86
2011,11,13,07,23,1007.93
2011,11,13,07,24,1007.83
2011,11,13,07,25,1007.86
2011,11,13,07,26,1007.93
2011,11,13,07,27,1007.82
2011,11,13,07,28,1007.82
2011,11,13,07,29,1007.82
2011,11,13,07,30,1007.93
2011,11,13,07,31,1007.89
2011,11,13,07,32,1007.96
2011,11,13,07,33,1007.93
2011,11,13,07,34,1007.89
2011,11,13,07,35,1008.06
2011,11,13,07,36,1008.03
2011,11,13,07,37,1008.20
2011,11,13,07,38,1008.10
2011,11,13,07,39,1008.09
2011,11,13,07,40,1008.30
2011,11,13,07,41,1008.13
2011,11,13,07,42,1008.20
2011,11,13,07,43,1008.20
2011,11,13,07,44,1008.20
2011,11,13,07,45,1008.23
2011,11,13,07,46,1008.23
2011,11,13,07,47,1008.20
2011,11,13,07,48,1008.30
2011,11,13,07,49,1008.33
2011,11,13,07,50,1008.33
2011,11,13,07,51,1008.40
2011,11,13,07,52,1008.43
2011,11,13,07,53,1008.53
2011,11,13,07,54,1008.43
2011,11,13,07,55,1008.41
2011,11,13,07,56,1008.53
2011,11,13,07,57,1008.50
2011,11,13,07,58,1008.43
2011,11,13,07,59,1008.53
2011,11,13,08,00,1008.57
2011,11,13,08,01,1008.66
2011,11,13,08,02,1008.70
2011,11,13,08,03,1008.77
2011,11,13,08,04,1008.74
2011,11,13,08,05,1008.84
2011,11,13,08,06,1008.77
2011,11,13,08,07,1008.84
2011,11,13,08,08,1009.01
2011,11,13,08,09,1008.81
2011,11,13,08,10,1008.91
2011,11,13,08,11,1008.91
2011,11,13,08,12,1009.01
2011,11,13,08,13,1009.04
2011,11,13,08,14,1009.01
2011,11,13,08,15,1009.01
2011,11,13,08,16,1008.97
2011,11,13,08,17,1009.04
2011,11,13,08,18,1009.01
2011,11,13,08,19,1009.14
2011,11,13,08,20,1009.14
2011,11,13,08,21,1009.08
2011,11,13,08,22,1009.04
2011,11,13,08,23,1009.01
2011,11,13,08,24,1009.08
2011,11,13,08,25,1009.08
2011,11,13,08,26,1009.11
2011,11,13,08,27,1009.11
2011,11,13,08,28,1009.11
2011,11,13,08,29,1009.14
2011,11,13,08,30,1009.14
2011,11,13,08,31,1009.11
2011,11,13,08,32,1009.08
2011,11,13,08,33,1009.14
2011,11,13,08,34,1009.21
2011,11,13,08,35,1009.18
2011,11,13,08,36,1009.25
2011,11,13,08,37,1009.28
2011,11,13,08,38,1009.28
2011,11,13,08,39,1009.28
2011,11,13,08,40,1009.21
2011,11,13,08,41,1009.25
2011,11,13,08,42,1009.21
2011,11,13,08,43,1009.28
2011,11,13,08,44,1009.35
2011,11,13,08,45,1009.28
2011,11,13,08,46,1009.35
2011,11,13,08,47,1009.38
2011,11,13,08,48,1009.35
2011,11,13,08,49,1009.38
2011,11,13,08,50,1009.42
2011,11,13,08,51,1009.42
2011,11,13,08,52,1009.35
2011,11,13,08,53,1009.28
2011,11,13,08,54,1009.31
2011,11,13,08,55,1009.19
2011,11,13,08,56,1009.14
2011,11,13,08,57,1009.18
2011,11,13,08,58,1009.18
2011,11,13,08,59,1009.08
2011,11,13,09,00,1009.11
2011,11,13,09,01,1009.11
2011,11,13,09,02,1009.08
2011,11,13,09,03,1009.11
2011,11,13,09,04,1009.11
2011,11,13,09,05,1009.14
2011,11,13,09,06,1009.14
2011,11,13,09,07,1009.18
2011,11,13,09,08,1009.21
2011,11,13,09,09,1009.28
2011,11,13,09,10,1009.28
2011,11,13,09,11,1009.25
2011,11,13,09,12,1009.25
2011,11,13,09,13,1009.25
2011,11,13,09,14,1009.21
2011,11,13,09,15,1009.21
2011,11,13,09,16,1009.25
2011,11,13,09,17,1009.25
2011,11,13,09,18,1009.28
2011,11,13,09,19,1009.25
2011,11,13,09,20,1009.21
2011,11,13,09,21,1009.21
2011,11,13,09,22,1009.21
2011,11,13,09,23,1009.14
2011,11,13,09,24,1009.08
2011,11,13,09,25,1009.18
2011,11,13,09,26,1009.11
2011,11,13,09,27,1009.11
2011,11,13,09,28,1009.11
2011,11,13,09,29,1009.08
2011,11,13,09,30,1009.11
2011,11,13,09,31,1009.18
2011,11,13,09,32,1009.14
2011,11,13,09,33,1009.08
2011,11,13,09,34,1009.08
2011,11,13,09,35,1009.08
2011,11,13,09,36,1009.04
2011,11,13,09,37,1009.14
2011,11,13,09,38,1009.14
2011,11,13,09,39,1009.21
2011,11,13,09,40,1009.14
2011,11,13,09,41,1009.18
2011,11,13,09,42,1009.25
2011,11,13,09,43,1009.25
2011,11,13,09,44,1009.28
2011,11,13,09,45,1009.25
2011,11,13,09,46,1009.21
2011,11,13,09,47,1009.25
2011,11,13,09,48,1009.31
2011,11,13,09,49,1009.31
2011,11,13,09,50,1009.31
2011,11,13,09,51,1009.28
2011,11,13,09,52,1009.31
2011,11,13,09,53,1009.25
2011,11,13,09,54,1009.28
2011,11,13,09,55,1009.25
2011,11,13,09,56,1009.28
2011,11,13,09,57,1009.21
2011,11,13,09,58,1009.21
2011,11,13,09,59,1009.25
2011,11,13,10,00,1009.25
2011,11,13,10,01,1009.25
2011,11,13,10,02,1009.31
2011,11,13,10,03,1009.21
2011,11,13,10,04,1009.14
2011,11,13,10,05,1009.18
2011,11,13,10,06,1009.21
2011,11,13,10,07,1009.25
2011,11,13,10,08,1009.38
2011,11,13,10,09,1009.38
2011,11,13,10,10,1009.31
2011,11,13,10,11,1009.38
2011,11,13,10,12,1009.42
2011,11,13,10,13,1009.38
2011,11,13,10,14,1009.45
2011,11,13,10,15,1009.48
2011,11,13,10,16,1009.48
2011,11,13,10,17,1009.45
2011,11,13,10,18,1009.55
2011,11,13,10,19,1009.48
2011,11,13,10,20,1009.52
2011,11,13,10,21,1009.48
2011,11,13,10,22,1009.48
2011,11,13,10,23,1009.48
2011,11,13,10,24,1009.45
2011,11,13,10,25,1009.45
2011,11,13,10,26,1009.42
2011,11,13,10,27,1009.42
2011,11,13,10,28,1009.38
2011,11,13,10,29,1009.42
2011,11,13,10,30,1009.28
2011,11,13,10,31,1009.38
2011,11,13,10,32,1009.38
2011,11,13,10,33,1009.31
2011,11,13,10,34,1009.38
2011,11,13,10,35,1009.42
2011,11,13,10,36,1009.42
2011,11,13,10,37,1009.48
2011,11,13,10,38,1009.48
2011,11,13,10,39,1009.55
2011,11,13,10,40,1009.62
2011,11,13,10,41,1009.65
2011,11,13,10,42,1009.62
2011,11,13,10,43,1009.58
2011,11,13,10,44,1009.62
2011,11,13,10,45,1009.62
2011,11,13,10,46,1009.58
2011,11,13,10,47,1009.52
2011,11,13,10,48,1009.48
2011,11,13,10,49,1009.48
2011,11,13,10,50,1009.48
2011,11,13,10,51,1009.52
2011,11,13,10,52,1009.55
2011,11,13,10,53,1009.62
2011,11,13,10,54,1009.62
2011,11,13,10,55,1009.65
2011,11,13,10,56,1009.58
2011,11,13,10,57,1009.58
2011,11,13,10,58,1009.62
2011,11,13,10,59,1009.69
2011,11,13,11,00,1009.65
2011,11,13,11,01,1009.65
2011,11,13,11,02,1009.69
2011,11,13,11,03,1009.69
2011,11,13,11,04,1009.72
2011,11,13,11,05,1009.72
2011,11,13,11,06,1009.69
2011,11,13,11,07,1009.72
2011,11,13,11,08,1009.69
2011,11,13,11,09,1009.65
2011,11,13,11,10,1009.69
2011,11,13,11,11,1009.65
2011,11,13,11,12,1009.58
2011,11,13,11,13,1009.65
2011,11,13,11,14,1009.65
2011,11,13,11,15,1009.72
2011,11,13,11,16,1009.65
2011,11,13,11,17,1009.62
2011,11,13,11,18,1009.69
2011,11,13,11,19,1009.65
2011,11,13,11,20,1009.53
2011,11,13,11,21,1009.48
2011,11,13,11,22,1009.52
2011,11,13,11,23,1009.48
2011,11,13,11,24,1009.45
2011,11,13,11,25,1009.48
2011,11,13,11,26,1009.48
2011,11,13,11,27,1009.42
2011,11,13,11,28,1009.45
2011,11,13,11,29,1009.48
2011,11,13,11,30,1009.45
2011,11,13,11,31,1009.42
2011,11,13,11,32,1009.52
2011,11,13,11,33,1009.55
2011,11,13,11,34,1009.48
2011,11,13,11,35,1009.52
2011,11,13,11,36,1009.52
2011,11,13,11,37,1009.45
2011,11,13,11,38,1009.48
2011,11,13,11,39,1009.42
2011,11,13,11,40,1009.55
2011,11,13,11,41,1009.52
2011,11,13,11,42,1009.55
2011,11,13,11,43,1009.55
2011,11,13,11,44,1009.55
2011,11,13,11,45,1009.55
2011,11,13,11,46,1009.48
2011,11,13,11,47,1009.55
2011,11,13,11,48,1009.48
2011,11,13,11,49,1009.55
2011,11,13,11,50,1009.52
2011,11,13,11,51,1009.55
2011,11,13,11,52,1009.55
2011,11,13,11,53,1009.45
2011,11,13,11,54,1009.21
2011,11,13,11,55,1009.34
2011,11,13,11,56,1009.18
2011,11,13,11,57,1009.25
2011,11,13,11,58,1009.25
2011,11,13,11,59,1009.31
2011,11,13,12,00,1009.15
2011,11,13,12,01,1009.30
2011,11,13,12,02,1009.28
2011,11,13,12,03,1009.25
2011,11,13,12,04,1009.21
2011,11,13,12,05,1009.18
2011,11,13,12,06,1009.14
2011,11,13,12,07,1009.14
2011,11,13,12,08,1009.14
2011,11,13,12,09,1009.24
2011,11,13,12,10,1009.31
2011,11,13,12,11,1009.22
2011,11,13,12,12,1009.25
2011,11,13,12,13,1009.25
2011,11,13,12,14,1009.21
2011,11,13,12,15,1009.25
2011,11,13,12,16,1009.31
2011,11,13,12,17,1009.31
2011,11,13,12,18,1009.28
2011,11,13,12,19,1009.28
2011,11,13,12,20,1009.28
2011,11,13,12,21,1009.18
2011,11,13,12,22,1009.04
2011,11,13,12,23,1009.20
2011,11,13,12,24,1009.21
2011,11,13,12,25,1009.21
2011,11,13,12,26,1009.25
2011,11,13,12,27,1009.25
2011,11,13,12,28,1009.21
2011,11,13,12,29,1009.25
2011,11,13,12,30,1009.04
2011,11,13,12,31,1009.14
2011,11,13,12,32,1009.08
2011,11,13,12,33,1009.14
2011,11,13,12,34,1009.14
2011,11,13,12,35,1009.14
2011,11,13,12,36,1009.14
2011,11,13,12,37,1009.14
2011,11,13,12,38,1009.11
2011,11,13,12,39,1009.04
2011,11,13,12,40,1009.11
2011,11,13,12,41,1009.18
2011,11,13,12,42,1009.21
2011,11,13,12,43,1009.25
2011,11,13,12,44,1009.25
2011,11,13,12,45,1009.25
2011,11,13,12,46,1009.11
2011,11,13,12,47,1009.18
2011,11,13,12,48,1009.18
2011,11,13,12,49,1009.14
2011,11,13,12,50,1008.95
2011,11,13,12,51,1009.04
2011,11,13,12,52,1009.14
2011,11,13,12,53,1009.14
2011,11,13,12,54,1009.14
2011,11,13,12,55,1009.21
2011,11,13,12,56,1009.09
2011,11,13,12,57,1009.11
2011,11,13,12,58,1009.14
2011,11,13,12,59,1009.14
2011,11,13,13,00,1009.18
2011,11,13,13,01,1009.14
2011,11,13,13,02,1009.11
2011,11,13,13,03,1009.08
2011,11,13,13,04,1009.17
2011,11,13,13,05,1009.18
2011,11,13,13,06,1009.11
2011,11,13,13,07,1009.21
2011,11,13,13,08,1009.14
2011,11,13,13,09,1009.18
2011,11,13,13,10,1009.14
2011,11,13,13,11,1009.18
2011,11,13,13,12,1009.04
2011,11,13,13,13,1009.04
2011,11,13,13,14,1009.08
2011,11,13,13,15,1009.08
2011,11,13,13,16,1008.95
2011,11,13,13,17,1008.94
2011,11,13,13,18,1008.97
2011,11,13,13,19,1009.01
2011,11,13,13,20,1008.91
2011,11,13,13,21,1008.94
2011,11,13,13,22,1008.94
2011,11,13,13,23,1008.91
2011,11,13,13,24,1008.94
2011,11,13,13,25,1008.94
2011,11,13,13,26,1008.87
2011,11,13,13,27,1008.87
2011,11,13,13,28,1008.84
2011,11,13,13,29,1008.81
2011,11,13,13,30,1008.87
2011,11,13,13,31,1008.91
2011,11,13,13,32,1008.97
2011,11,13,13,33,1008.97
2011,11,13,13,34,1008.97
2011,11,13,13,35,1009.04
2011,11,13,13,36,1008.94
2011,11,13,13,37,1008.97
2011,11,13,13,38,1008.94
2011,11,13,13,39,1008.97
2011,11,13,13,40,1008.82
2011,11,13,13,41,1008.93
2011,11,13,13,42,1009.03
2011,11,13,13,43,1009.11
2011,11,13,13,44,1009.11
2011,11,13,13,45,1009.14
2011,11,13,13,46,1009.04
2011,11,13,13,47,1009.11
2011,11,13,13,48,1009.04
2011,11,13,13,49,1009.04
2011,11,13,13,50,1008.97
2011,11,13,13,51,1008.97
2011,11,13,13,52,1008.94
2011,11,13,13,53,1008.97
2011,11,13,13,54,1008.88
2011,11,13,13,55,1008.84
2011,11,13,13,56,1008.77
2011,11,13,13,57,1008.77
2011,11,13,13,58,1008.74
2011,11,13,13,59,1008.84
2011,11,13,14,00,1008.81
2011,11,13,14,01,1008.90
2011,11,13,14,02,1008.82
2011,11,13,14,03,1008.74
2011,11,13,14,04,1008.86
2011,11,13,14,05,1008.68
2011,11,13,14,06,1008.64
2011,11,13,14,07,1008.67
2011,11,13,14,08,1008.64
2011,11,13,14,09,1008.73
2011,11,13,14,10,1008.67
2011,11,13,14,11,1008.70
2011,11,13,14,12,1008.70
2011,11,13,14,13,1008.60
2011,11,13,14,14,1008.70
2011,11,13,14,15,1008.70
2011,11,13,14,16,1008.74
2011,11,13,14,17,1008.81
2011,11,13,14,18,1008.71
2011,11,13,14,19,1008.70
2011,11,13,14,20,1008.70
2011,11,13,14,21,1008.77
2011,11,13,14,22,1008.74
2011,11,13,14,23,1008.74
2011,11,13,14,24,1008.40
2011,11,13,14,25,1008.72
2011,11,13,14,26,1008.51
2011,11,13,14,27,1008.66
2011,11,13,14,28,1008.67
2011,11,13,14,29,1008.70
2011,11,13,14,30,1008.67
2011,11,13,14,31,1008.60
2011,11,13,14,32,1008.70
2011,11,13,14,33,1008.80
2011,11,13,14,34,1008.58
2011,11,13,14,35,1008.73
2011,11,13,14,36,1008.74
2011,11,13,14,37,1008.70
2011,11,13,14,38,1008.77
2011,11,13,14,39,1008.70
2011,11,13,14,40,1008.80
2011,11,13,14,41,1008.81
2011,11,13,14,42,1008.71
2011,11,13,14,43,1008.74
2011,11,13,14,44,1008.77
2011,11,13,14,45,1008.70
2011,11,13,14,46,1008.74
2011,11,13,14,47,1008.74
2011,11,13,14,48,1008.70
2011,11,13,14,49,1008.67
2011,11,13,14,50,1008.70
2011,11,13,14,51,1008.70
2011,11,13,14,52,1008.58
2011,11,13,14,53,1008.66
2011,11,13,14,54,1008.58
2011,11,13,14,55,1008.47
2011,11,13,14,56,1008.50
2011,11,13,14,57,1008.57
2011,11,13,14,58,1008.38
2011,11,13,14,59,1008.49
2011,11,13,15,00,1008.37
2011,11,13,15,01,1008.40
2011,11,13,15,02,1008.37
2011,11,13,15,03,1008.43
2011,11,13,15,04,1008.40
2011,11,13,15,05,1008.43
2011,11,13,15,06,1008.34
2011,11,13,15,07,1008.33
2011,11,13,15,08,1008.46
2011,11,13,15,09,1008.40
2011,11,13,15,10,1008.40
2011,11,13,15,11,1008.37
2011,11,13,15,12,1008.52
2011,11,13,15,13,1008.44
2011,11,13,15,14,1008.47
2011,11,13,15,15,1008.50
2011,11,13,15,16,1008.53
2011,11,13,15,17,1008.47
2011,11,13,15,18,1008.40
2011,11,13,15,19,1008.47
2011,11,13,15,20,1008.59
2011,11,13,15,21,1008.60
2011,11,13,15,22,1008.53
2011,11,13,15,23,1008.60
2011,11,13,15,24,1008.50
2011,11,13,15,25,1008.57
2011,11,13,15,26,1008.50
2011,11,13,15,27,1008.47
2011,11,13,15,28,1008.52
2011,11,13,15,29,1008.57
2011,11,13,15,30,1008.53
2011,11,13,15,31,1008.50
2011,11,13,15,32,1008.56
2011,11,13,15,33,1008.57
2011,11,13,15,34,1008.53
2011,11,13,15,35,1008.57
2011,11,13,15,36,1008.57
2011,11,13,15,37,1008.57
2011,11,13,15,38,1008.57
2011,11,13,15,39,1008.57
2011,11,13,15,40,1008.50
2011,11,13,15,41,1008.50
2011,11,13,15,42,1008.63
2011,11,13,15,43,1008.57
2011,11,13,15,44,1008.64
2011,11,13,15,45,1008.67
2011,11,13,15,46,1008.54
2011,11,13,15,47,1008.47
2011,11,13,15,48,1008.40
2011,11,13,15,49,1008.47
2011,11,13,15,50,1008.38
2011,11,13,15,51,1008.33
2011,11,13,15,52,1008.21
2011,11,13,15,53,1008.39
2011,11,13,15,54,1008.37
2011,11,13,15,55,1008.43
2011,11,13,15,56,1008.50
2011,11,13,15,57,1008.34
2011,11,13,15,58,1008.40
2011,11,13,15,59,1008.27